Batesville, AR

6:01 PM CST on December 15, 2019 (GMT -0600)
Batesville Regional

Weather History for KBVX - October, 2019

Change the Weather History Date:

Sunday, October 20, 2019

  Actual Average Record
Temperature  
Mean Temperature 68 °F -  
Max Temperature 79 °F 70 °F 87 °F (1953)
Min Temperature 57 °F 43 °F 27 °F (1966)
Cooling Degree Days 2    
Growing Degree Days 18 (Base 50)    
Moisture  
Dew Point 59 °F    
Average Humidity 76    
Maximum Humidity 93    
Minimum Humidity 50    
Precipitation  
Precipitation 0.00 in - - ()
Sea Level Pressure  
Sea Level Pressure 29.80 in    
Wind  
Wind Speed 4 mph ()    
Max Wind Speed 12 mph    
Max Gust Speed -    
Visibility 8.3 miles    
Events      
Averages and records for this station are not official NWS values.
T = Trace of Precipitation, MM = Missing Value Source: Averaged Metar Reports

Daily Weather History Graph

Daily Weather History Graph

Search for Another Location

Airport or City:

Astronomy

Oct. 20, 2019 Rise Set
Actual Time 7:17 AM CDT 6:24 PM CDT
Civil Twilight 6:51 AM CDT 6:50 PM CDT
Nautical Twilight 6:21 AM CDT 7:20 PM CDT
Astronomical Twilight 5:52 AM CDT 7:50 PM CDT
Moon 11:41 PM CDT (10/20) 1:37 PM CDT (10/20)
Length of Visible Light 11h 59m
Length of Day
11h 07m
Waning Gibbous, 59% of the Moon is Illuminated
Oct 20
Waning Gibbous
Oct 21
Last Quarter
Oct 27
New
Nov 4
First Quarter
Nov 12
Full

Hourly Weather History & Observations

Time (CDT) Temp. Dew Point Humidity Pressure Visibility Wind Dir Wind Speed Gust Speed Precip Events Conditions
12:56 AM 59.0 °F 55.0 °F 87% 29.81 in 10.0 mi Calm Calm - N/A   Overcast
1:56 AM 59.0 °F 54.0 °F 83% 29.82 in 10.0 mi North 3.5 mph - N/A   Overcast
3:56 AM 57.9 °F 55.0 °F 90% 29.82 in 10.0 mi Calm Calm - N/A   Overcast
4:56 AM 57.9 °F 55.0 °F 90% 29.83 in 10.0 mi Calm Calm - N/A   Overcast
5:56 AM 57.9 °F 55.0 °F 90% 29.85 in 10.0 mi Calm Calm - N/A   Overcast
6:56 AM 57.9 °F 54.0 °F 87% 29.86 in 10.0 mi Calm Calm - N/A   Mostly Cloudy
7:56 AM 57.0 °F 55.0 °F 93% 29.86 in 10.0 mi Calm Calm - N/A   Overcast
9:56 AM 61.0 °F 54.0 °F 78% 29.91 in 10.0 mi NNE 4.6 mph - N/A   Overcast
10:56 AM 66.0 °F 55.0 °F 68% 29.89 in 10.0 mi ENE 5.8 mph - N/A   Partly Cloudy
11:56 AM 70.0 °F 55.0 °F 59% 29.88 in 10.0 mi East 8.1 mph - N/A   Clear
12:56 PM 72.0 °F 55.9 °F 57% 29.85 in 10.0 mi East 11.5 mph - N/A   Partly Cloudy
1:56 PM 75.9 °F 57.0 °F 52% 29.82 in 10.0 mi Variable 6.9 mph - N/A   Clear
2:56 PM 78.1 °F 57.9 °F 50% 29.79 in 10.0 mi East 9.2 mph - N/A   Partly Cloudy
3:56 PM 77.0 °F 59.0 °F 54% 29.79 in 10.0 mi ESE 9.2 mph - N/A   Scattered Clouds
4:56 PM 77.0 °F 60.1 °F 56% 29.78 in 10.0 mi ESE 6.9 mph - N/A   Scattered Clouds
5:56 PM 75.9 °F 61.0 °F 60% 29.76 in 10.0 mi ESE 5.8 mph - N/A   Scattered Clouds
6:56 PM 72.0 °F 62.1 °F 71% 29.76 in 10.0 mi SE 5.8 mph - N/A   Clear
7:56 PM 71.1 °F 63.0 °F 75% 29.77 in 10.0 mi SE 4.6 mph - N/A   Clear
8:56 PM 70.0 °F 64.0 °F 81% 29.76 in 10.0 mi SSE 5.8 mph - N/A   Clear
9:56 PM 69.1 °F 64.9 °F 87% 29.76 in 3.0 mi SE 6.9 mph - N/A   Clear
10:03 PM 69.8 °F 64.4 °F 83% 29.76 in 1.8 mi ESE 5.8 mph - N/A   Clear
10:23 PM 69.8 °F 64.4 °F 83% 29.75 in 0.8 mi ESE 8.1 mph - N/A   Clear
10:29 PM 69.8 °F 64.4 °F 83% 29.75 in 1.2 mi East 8.1 mph - N/A   Clear
10:33 PM 69.8 °F 64.4 °F 83% 29.75 in 4.0 mi ESE 6.9 mph - N/A   Clear
10:56 PM 70.0 °F 66.0 °F 87% 29.73 in 9.0 mi SSE 6.9 mph - N/A   Clear
11:56 PM 71.1 °F 66.9 °F 87% 29.66 in 7.0 mi SE 8.1 mph - N/A   Overcast